Weather in Vernoye

Russia / Amur Oblast     51°11′23″N   128°41′43″E
temp.,
°C
wind,
m/s
gust,
m/s
humid.,
%
clouds,
%
prec.,
mm/h
press.,
hPa
HPBL,
m
13 june, sun
sun1300:00+16n228345 0.0 100711
03:00+13ene348580 0.0 100847
06:00+14ne3576100 0.0 1009139
09:00+19ne235521 0.0 1009459
12:00+25ne224296 0.0 10081258
15:00+26nnw22375 0.0 10071720
18:00+25nnw1145100 0.0 1007842
21:00+19ese2258100 0.0 100713
14 june, mon
mon1400:00+17ese356171 0.0 100855
03:00+16se366397 0.0 100869
06:00+16se3469100 0.0 100898
09:00+22sse455595 0.0 1007504
12:00+26sse565292 0.0 10061281
15:00+26s6751100 0.0 10041543
18:00+25sse5764100 0.0 1003926
21:00+21sse6156999 0.0 1003483
15 june, tue
tue1500:00+20sse81765100 0.0 1003500
03:00+18sse7157798 0.0 1003415
06:00+18sse71577100 0.0 1003469
09:00+19s71368100 0.0 1004574
12:00+18s4972100 0.1 1004551
15:00+22ssw4771100 0.9 1003795
18:00+20s4886100 1.1 1002381
21:00+18ssw3894100 2.6 1003211
16 june, wed
wed1600:00+17ssw61388100 0.3 1003431
03:00+16ssw51192100 0.3 1004412
06:00+16ssw4893100 0.0 1004357
09:00+18sw5681100 0.0 1005769
12:00+20sw4575100 0.1 10051011
15:00+22ssw3365100 0.1 10041120
18:00+22s1165100 0.0 1004847
21:00+19ese1180100 0.1 100311
17 june, thu
thu1700:00+17e3392100 1.1 100258
03:00+17se3495100 1.8 1001103
06:00+17ese4895100 0.3 999265
09:00+20se61085100 1.1 997396
12:00+25sse101457100 0.9 9951705
15:00+26sse91651100 1.1 9922047
18:00+19s71690100 0.7 993767
21:00+18s61494100 5.7 993672